This demonstration page uses our WeatherBlox Daily Observations layout. Learn more.

Left ArrowRight Arrow

53.62937, 11.41316

Hourly Observations for September 18, 2015

Temp ( °F °C ) Dew Point ( °F °C ) Humidity (%) Winds ( mph kmh ) Pressure ( in mb ) Visibility ( mi km ) Precip ( " mm )
6:12 am 06:12 Partly Cloudy 54 12 50 10 88 88 SW 9 15 29.83 1010 30 48 N/A
6:20 am 06:20 Partly Cloudy 54 12 50 10 88 88 SW 9 15 29.83 1010 30 48 N/A
6:50 am 06:50 Mostly Cloudy 54 12 50 10 88 88 SW 9 15 29.85 1011 30 48 N/A
7:20 am 07:20 Partly Cloudy 54 12 50 10 88 88 SSW 9 15 29.85 1011 30 48 N/A
7:50 am 07:50 Mostly Sunny 54 12 50 10 88 88 SSW 10 17 29.85 1011 7 11 N/A
8:20 am 08:20 Mostly Sunny 54 12 52 11 94 94 SSW 13 20 29.88 1012 30 48 N/A
8:50 am 08:50 Mostly Sunny 55 13 52 11 88 88 SSW 15 24 29.88 1012 30 48 N/A
9:20 am 09:20 Partly Cloudy 55 13 52 11 88 88 SW 15 24 29.88 1012 30 48 N/A
9:50 am 09:50 Mostly Sunny 57 14 52 11 82 82 SW 16 26 29.91 1013 30 48 N/A
10:20 am 10:20 Mostly Sunny 59 15 52 11 77 77 SW 14 22 29.91 1013 30 48 N/A
10:50 am 10:50 Mostly Cloudy 59 15 52 11 77 77 SW 15 24 29.94 1014 30 48 N/A
11:20 am 11:20 Partly Cloudy 59 15 52 11 77 77 SW 14 22 29.94 1014 30 48 N/A
11:50 am 11:50 Partly Cloudy 61 16 52 11 72 72 SW 15 24 29.94 1014 30 48 N/A
12:20 pm 12:20 Mostly Cloudy 63 17 52 11 68 68 SW 16 26 29.94 1014 30 48 N/A
12:50 pm 12:50 Mostly Cloudy 63 17 52 11 68 68 SW 14 22 29.94 1014 30 48 N/A
1:20 pm 13:20 Mostly Cloudy 63 17 52 11 68 68 WSW 15 24 29.94 1014 30 48 N/A
1:50 pm 13:50 Partly Cloudy 64 18 50 10 60 60 SW 15 24 29.97 1015 30 48 N/A
2:20 pm 14:20 Partly Cloudy 64 18 50 10 60 60 WSW 13 20 29.97 1015 30 48 N/A
2:50 pm 14:50 Partly Cloudy 64 18 50 10 60 60 SW 15 24 29.97 1015 30 48 N/A
3:20 pm 15:20 Mostly Sunny 64 18 50 10 60 60 SW 13 20 29.97 1015 30 48 N/A
3:50 pm 15:50 Partly Cloudy 66 19 50 10 56 56 SW 13 20 29.97 1015 30 48 N/A
4:20 pm 16:20 Mostly Sunny 66 19 50 10 56 56 WSW 9 15 29.97 1015 7 11 N/A
4:50 pm 16:50 Partly Cloudy 64 18 52 11 64 64 SW 12 19 29.97 1015 30 48 N/A
5:20 pm 17:20 Mostly Sunny 64 18 50 10 60 60 SW 13 20 29.97 1015 30 48 N/A
5:50 pm 17:50 Partly Cloudy 64 18 50 10 60 60 SSW 12 19 29.97 1015 30 48 N/A
6:20 pm 18:20 Mostly Sunny 64 18 50 10 60 60 SSW 8 13 29.97 1015 7 11 N/A
6:50 pm 18:50 Mostly Sunny 63 17 50 10 64 64 SSW 7 11 30.00 1016 7 11 N/A

Powered by AerisWeather